Flag for U.S.A. Weather past 2 weeks in Honolulu, Hawaii, U.S.A.

82 °F

Scattered clouds.

Feels Like: 86 °F
Forecast: 72 / 80 °F
Wind: 17 mph from Northeast

Location: Honolulu International Airport

Current Time: Nov 27, 2015 at 4:25:11 PM

Latest Report: Nov 27, 2015 at 3:53 PM

Visibility: 10 mi

Pressure: 29.97 "Hg

Humidity: 67%

Dew point: 70 °F

Location of HonoluluLocation

Historic Weather in Honolulu — Graph


Honolulu temperature yesterday

Maximum temperature yesterday: 81 °F (at 10:53 AM)
Minimum temperature yesterday: 75 °F (at 5:53 PM)
Average temperature yesterday: 77 °F

Past Weeks' High & Low Weather Summary

High87 °F (Nov 15, 11:53 AM)100% (Nov 20, 1:53 AM)30.07 "Hg (Nov 20, 1:53 AM)
Low69 °F (Nov 17, 6:53 AM)45% (Nov 15, 11:53 AM)29.77 "Hg (Nov 22, 1:53 PM)
Average78 °F78%29.93 "Hg
* Reported Nov 12 1:53 PM — Nov 27 1:53 PM, Honolulu, Weather by CustomWeather, © 2015

Note: Actual official high and low records may vary slightly from our data, if they occured in-between our weather recording intervals... More about our weather records


Honolulu weather history for previous 24 hours

Time TempWeatherWind HumidityBarometerVisibility
1:53 PM
Fri, Nov 27
84 °FBroken clouds.18 mph65%29.96 "Hg10 mi
12:53 PM83 °FBroken clouds.21 mph65%29.99 "Hg10 mi
11:53 AM84 °FBroken clouds.17 mph63%30.01 "Hg10 mi
10:53 AM82 °FBroken clouds.16 mph67%30.02 "Hg10 mi
9:53 AM81 °FBroken clouds.16 mph72%30.03 "Hg10 mi
8:53 AM80 °FBroken clouds.15 mph71%30.02 "Hg10 mi
7:53 AM78 °FBroken clouds.13 mph74%30.01 "Hg10 mi
6:53 AM77 °FBroken clouds.15 mph79%30.01 "Hg10 mi
5:53 AM76 °FRain. Partly cloudy.8 mph85%29.99 "Hg6 mi
4:53 AM77 °FMostly cloudy.13 mph79%29.98 "Hg10 mi
3:53 AM76 °FPartly cloudy.16 mph85%29.98 "Hg10 mi
2:53 AM77 °FPartly cloudy.10 mph79%29.97 "Hg10 mi
1:53 AM76 °FPartly cloudy.12 mph85%29.99 "Hg10 mi
12:53 AM76 °FPartly cloudy.5 mph82%30.00 "Hg10 mi
11:53 PM
Thu, Nov 26
76 °FPassing clouds.9 mph82%30.01 "Hg10 mi
10:53 PM77 °FPassing clouds.12 mph79%30.01 "Hg10 mi
9:53 PM76 °FPassing clouds.12 mph85%30.01 "Hg10 mi
8:53 PM75 °FPartly cloudy.8 mph85%30.02 "Hg10 mi
7:53 PM76 °FPartly cloudy.13 mph85%30.01 "Hg10 mi
6:53 PM76 °FLight rain. Mostly cloudy.16 mph85%29.99 "Hg10 mi
5:53 PM75 °FLight rain. Mostly cloudy.10 mph88%29.98 "Hg10 mi
4:53 PM76 °FLight rain. Mostly cloudy.14 mph88%29.98 "Hg8 mi
Weather by CustomWeather, © 2015

See weather overviewHow to use our weather pages